{"data":{"norad_id":63077,"intl_designator":"2025-037A","name":"STARLINK-32839","alt_names":[],"object_type":"PAYLOAD","status":"ACTIVE","operator":null,"country":"US","launch_date":"2025-02-23","launch_site_code":"AFWTR","launch_vehicle":null,"mission":null,"orbit_class":"UNKNOWN","rcs_meters":null,"size_class":null,"mass_kg":null,"dimensions":null,"purposes":["comms"],"wikipedia_slug":null,"has_3d_model":false,"image_url":null,"decayed_at":null,"tle_current":{"epoch":"2026-05-25T03:43:11.174016Z","epoch_age_seconds":57865,"freshness":"FRESH","line1":"1 63077U 25037A   26145.15499044  .00002810  00000+0  24308-3 0  9994","line2":"2 63077  70.0005 161.7488 0004104 265.4169  94.6522 14.98343287 70042","mean_motion":14.98343287,"eccentricity":0.0004104,"inclination_deg":70.0005,"raan_deg":161.7488,"arg_perigee_deg":265.4169,"mean_anomaly_deg":94.6522,"bstar":0.00024308,"rev_number":7004,"period_min":96.106146868598,"perigee_km":569.16245999694,"apogee_km":574.86714459627,"semimajor_km":6950.1518022966,"source":"CELESTRAK","updated_at":"2026-05-25T13:38:19.876539Z"}}}